Location: Montclair
(37.8322°N, 122.2092°W)
Time: 15:42:05
(UTC+00:00)

CZ-2C R/B - Pass Details

Date: 08 September 2024
Orbit: 664 x 778 km, 98.4° (Epoch: 07 October)

Event Time Altitude Azimuth Distance (km) Brightness Sun altitude
Rises 12:41:55 0° 359° (N) 3,175 5.9 -13.0°
Reaches altitude 10° 12:44:33 10° 347° (NNW) 2,228 5.0 -12.5°
Maximum altitude 12:48:30 25° 293° (WNW) 1,410 3.5 -11.8°
Enters shadow 12:51:18 15° 247° (WSW) 1,837 3.8 -11.3°
